| time (UTC) | temp F | wind direction | speed MPH | gust MPH | rain 1hr in | rain 24hr in | rain mn in | humidity % | barometer mb |
| 20260507111002 | 38 | 357 | 0.0 | 2.0 | 0.00 | 0.17 | 0.00 | 98 | 1019.1 |
| 20260507104003 | 39 | 0 | 1.0 | 3.0 | 0.00 | 0.18 | 0.00 | 98 | 1018.5 |
| 20260507103002 | 39 | 47 | 0.0 | 1.0 | 0.00 | 0.19 | 0.00 | 98 | 1018.2 |
| 20260507102001 | 39 | 15 | 0.0 | 0.0 | 0.00 | 0.19 | 0.00 | 98 | 1018.4 |
| 20260507101001 | 39 | 15 | 0.0 | 0.0 | 0.00 | 0.20 | 0.00 | 98 | 1018.4 |
| 20260507100002 | 39 | 15 | 0.0 | 0.0 | 0.00 | 0.21 | 0.00 | 98 | 1018.4 |
| 20260507095001 | 39 | 15 | 0.0 | 0.0 | 0.00 | 0.21 | 0.00 | 98 | 1018.6 |
| 20260507094002 | 40 | 15 | 0.0 | 0.0 | 0.00 | 0.21 | 0.00 | 98 | 1018.5 |
| 20260507093001 | 40 | 15 | 0.0 | 0.0 | 0.00 | 0.22 | 0.00 | 98 | 1018.4 |
| 20260507091002 | 40 | 15 | 0.0 | 1.0 | 0.00 | 0.24 | 0.00 | 99 | 1018.5 |
| 20260507090002 | 40 | 15 | 0.0 | 0.0 | 0.00 | 0.25 | 0.00 | 98 | 1018.2 |
| 20260507085001 | 40 | 15 | 0.0 | 0.0 | 0.00 | 0.25 | 0.00 | 98 | 1018.3 |
| 20260507083001 | 39 | 15 | 0.0 | 0.0 | 0.00 | 0.27 | 0.00 | 98 | 1018.5 |
| 20260507082001 | 39 | 15 | 0.0 | 0.0 | 0.00 | 0.27 | 0.00 | 98 | 1018.6 |
| 20260507075001 | 39 | 15 | 0.0 | 0.0 | 0.00 | 0.30 | 0.00 | 98 | 1018.3 |
| 20260507073002 | 39 | 15 | 0.0 | 0.0 | 0.00 | 0.33 | 0.00 | 97 | 1018.3 |
| 20260507071001 | 39 | 15 | 0.0 | 0.0 | 0.00 | 0.36 | 0.00 | 97 | 1018.3 |
| 20260507070003 | 40 | 15 | 0.0 | 2.0 | 0.00 | 0.37 | 0.00 | 97 | 1018.2 |
| 20260507064002 | 41 | 15 | 0.0 | 1.0 | 0.00 | 0.39 | 0.00 | 98 | 1018.4 |
| 20260507063002 | 41 | 15 | 1.0 | 2.0 | 0.00 | 0.39 | 0.00 | 98 | 1018.6 |
| 20260507062002 | 41 | 357 | 1.0 | 2.0 | 0.00 | 0.40 | 0.00 | 97 | 1018.8 |
| 20260507061001 | 41 | 339 | 0.0 | 0.0 | 0.00 | 0.40 | 0.00 | 98 | 1018.7 |
| 20260507060002 | 41 | 339 | 0.0 | 0.0 | 0.00 | 0.41 | 0.00 | 98 | 1018.6 |
| 20260507055002 | 41 | 339 | 0.0 | 0.0 | 0.00 | 0.41 | 0.00 | 98 | 1018.6 |
| 20260507053003 | 41 | 339 | 0.0 | 0.0 | 0.00 | 0.43 | 0.00 | 98 | 1018.6 |
| 20260507052003 | 42 | 339 | 0.0 | 0.0 | 0.00 | 0.43 | 0.00 | 98 | 1018.9 |
| 20260507051002 | 42 | 339 | 0.0 | 1.0 | 0.00 | 0.44 | 0.00 | 98 | 1018.9 |
| 20260507050005 | 42 | 339 | 0.0 | 0.0 | 0.00 | 0.45 | 0.00 | 98 | 1018.8 |
| 20260507045003 | 42 | 339 | 0.0 | 0.0 | 0.00 | 0.46 | 0.00 | 98 | 1019.1 |
| 20260507044004 | 41 | 339 | 0.0 | 0.0 | 0.00 | 0.47 | 0.00 | 98 | 1019.1 |
| 20260507043002 | 42 | 339 | 0.0 | 0.0 | 0.00 | 0.47 | 0.00 | 97 | 1019.1 |
| 20260507042003 | 42 | 339 | 0.0 | 0.0 | 0.00 | 0.47 | 0.00 | 97 | 1018.9 |
| 20260507041003 | 42 | 339 | 0.0 | 0.0 | 0.00 | 0.47 | 0.00 | 97 | 1019.1 |
| 20260507040003 | 42 | 339 | 0.0 | 0.0 | 0.00 | 0.47 | 0.00 | 97 | 1018.9 |
| 20260507035002 | 42 | 339 | 0.0 | 0.0 | 0.00 | 0.47 | 0.47 | 97 | 1019.0 |
| 20260507034002 | 42 | 339 | 0.0 | 0.0 | 0.00 | 0.48 | 0.47 | 97 | 1019.0 |
| 20260507033002 | 42 | 339 | 0.0 | 0.0 | 0.00 | 0.48 | 0.47 | 97 | 1018.9 |
| 20260507032002 | 42 | 339 | 0.0 | 0.0 | 0.00 | 0.49 | 0.47 | 97 | 1019.0 |
| 20260507031002 | 42 | 339 | 0.0 | 0.0 | 0.00 | 0.50 | 0.47 | 97 | 1018.9 |
| 20260507030002 | 42 | 339 | 0.0 | 0.0 | 0.00 | 0.51 | 0.47 | 97 | 1018.9 |
| 20260507025002 | 43 | 339 | 0.0 | 0.0 | 0.00 | 0.52 | 0.47 | 97 | 1019.0 |
| 20260507024003 | 43 | 339 | 0.0 | 0.0 | 0.00 | 0.53 | 0.47 | 97 | 1018.8 |
| 20260507023004 | 43 | 339 | 0.0 | 2.0 | 0.00 | 0.54 | 0.47 | 97 | 1018.8 |
| 20260507022002 | 43 | 325 | 0.0 | 1.0 | 0.00 | 0.55 | 0.47 | 97 | 1019.0 |
| 20260507020003 | 43 | 324 | 0.0 | 0.0 | 0.00 | 0.57 | 0.47 | 97 | 1019.1 |
| 20260507015003 | 43 | 324 | 0.0 | 0.0 | 0.00 | 0.57 | 0.47 | 97 | 1019.0 |
| 20260507014003 | 43 | 324 | 0.0 | 0.0 | 0.00 | 0.58 | 0.47 | 97 | 1019.0 |
| 20260507013002 | 43 | 324 | 0.0 | 0.0 | 0.00 | 0.59 | 0.47 | 97 | 1018.8 |
| 20260507012002 | 43 | 324 | 0.0 | 0.0 | 0.00 | 0.60 | 0.47 | 97 | 1018.7 |
| 20260507010002 | 43 | 324 | 0.0 | 0.0 | 0.00 | 0.61 | 0.47 | 97 | 1018.4 |
| 20260507005002 | 43 | 324 | 0.0 | 1.0 | 0.00 | 0.62 | 0.47 | 97 | 1018.3 |
| 20260507003002 | 43 | 324 | 0.0 | 0.0 | 0.00 | 0.66 | 0.47 | 96 | 1018.2 |
| 20260507002002 | 43 | 324 | 0.0 | 1.0 | 0.00 | 0.68 | 0.47 | 96 | 1018.2 |
| 20260507001003 | 43 | 324 | 0.0 | 0.0 | 0.00 | 0.69 | 0.47 | 96 | 1018.1 |
| 20260507000002 | 44 | 324 | 0.0 | 0.0 | 0.00 | 0.70 | 0.47 | 96 | 1017.9 |
| 20260506235002 | 44 | 324 | 0.0 | 0.0 | 0.00 | 0.71 | 0.47 | 96 | 1017.9 |
| 20260506234002 | 44 | 324 | 0.0 | 1.0 | 0.00 | 0.72 | 0.47 | 96 | 1017.9 |
| 20260506233003 | 44 | 343 | 0.0 | 2.0 | 0.00 | 0.73 | 0.47 | 97 | 1017.8 |
| 20260506231003 | 44 | 347 | 0.0 | 3.0 | 0.00 | 0.75 | 0.47 | 97 | 1017.7 |
| 20260506225003 | 44 | 25 | 1.0 | 3.0 | 0.01 | 0.77 | 0.47 | 96 | 1017.4 |
| 20260506224003 | 44 | 23 | 1.0 | 5.0 | 0.01 | 0.78 | 0.47 | 96 | 1017.3 |
| 20260506223003 | 43 | 347 | 0.0 | 3.0 | 0.02 | 0.80 | 0.47 | 96 | 1017.3 |
| 20260506222002 | 43 | 297 | 0.0 | 2.0 | 0.02 | 0.83 | 0.47 | 96 | 1017.2 |
| 20260506215004 | 43 | 358 | 2.0 | 3.0 | 0.05 | 0.91 | 0.46 | 94 | 1016.8 |
| 20260506213002 | 45 | 353 | 3.0 | 7.0 | 0.09 | 0.95 | 0.45 | 94 | 1016.2 |
| 20260506212004 | 46 | 4 | 3.0 | 8.0 | 0.09 | 0.97 | 0.45 | 93 | 1015.9 |
| 20260506211002 | 47 | 346 | 1.0 | 3.0 | 0.08 | 0.97 | 0.44 | 92 | 1015.7 |
| 20260506205003 | 50 | 342 | 1.0 | 5.0 | 0.05 | 0.94 | 0.41 | 92 | 1015.5 |
| 20260506204002 | 50 | 53 | 0.0 | 3.0 | 0.02 | 0.91 | 0.38 | 91 | 1015.4 |
| 20260506203003 | 51 | 117 | 0.0 | 0.0 | 0.00 | 0.89 | 0.36 | 88 | 1015.2 |
| 20260506201003 | 51 | 135 | 1.0 | 3.0 | 0.00 | 0.89 | 0.36 | 85 | 1015.1 |
| 20260506200004 | 51 | 156 | 3.0 | 3.0 | 0.00 | 0.89 | 0.36 | 85 | 1015.1 |
| 20260506195003 | 51 | 244 | 1.0 | 2.0 | 0.00 | 0.89 | 0.36 | 84 | 1015.2 |
| 20260506194003 | 51 | 168 | 2.0 | 3.0 | 0.00 | 0.89 | 0.36 | 85 | 1015.3 |
| 20260506193003 | 51 | 89 | 2.0 | 3.0 | 0.00 | 0.89 | 0.36 | 86 | 1015.3 |
| 20260506191003 | 51 | 359 | 1.0 | 3.0 | 0.00 | 0.89 | 0.36 | 85 | 1015.2 |
| 20260506190003 | 52 | 134 | 3.0 | 6.0 | 0.00 | 0.89 | 0.36 | 85 | 1015.1 |
| 20260506185003 | 51 | 102 | 1.0 | 5.0 | 0.00 | 0.89 | 0.36 | 86 | 1015.2 |
| 20260506184002 | 51 | 194 | 1.0 | 8.0 | 0.00 | 0.89 | 0.36 | 87 | 1015.2 |
| 20260506183003 | 51 | 137 | 4.0 | 7.0 | 0.00 | 0.89 | 0.36 | 88 | 1015.4 |
| 20260506182003 | 50 | 152 | 2.0 | 6.0 | 0.00 | 0.89 | 0.36 | 91 | 1015.4 |
| 20260506181003 | 49 | 134 | 1.0 | 3.0 | 0.00 | 0.89 | 0.36 | 91 | 1015.4 |
| 20260506180004 | 49 | 92 | 2.0 | 7.0 | 0.00 | 0.89 | 0.36 | 91 | 1015.4 |
| 20260506175004 | 49 | 91 | 1.0 | 2.0 | 0.00 | 0.89 | 0.36 | 91 | 1015.5 |
| 20260506174003 | 48 | 175 | 0.0 | 2.0 | 0.00 | 0.89 | 0.36 | 90 | 1015.6 |
| 20260506173004 | 49 | 129 | 2.0 | 3.0 | 0.00 | 0.89 | 0.36 | 90 | 1015.6 |
| 20260506172004 | 49 | 150 | 1.0 | 3.0 | 0.00 | 0.89 | 0.36 | 90 | 1015.5 |
| 20260506170003 | 48 | 167 | 1.0 | 3.0 | 0.00 | 0.89 | 0.36 | 91 | 1015.4 |
| 20260506165003 | 48 | 51 | 2.0 | 3.0 | 0.00 | 0.89 | 0.36 | 93 | 1015.3 |
| 20260506164004 | 48 | 108 | 1.0 | 3.0 | 0.00 | 0.89 | 0.36 | 94 | 1015.4 |
| 20260506163004 | 47 | 94 | 2.0 | 3.0 | 0.00 | 0.89 | 0.36 | 93 | 1015.4 |
| 20260506162003 | 48 | 64 | 1.0 | 3.0 | 0.00 | 0.89 | 0.36 | 95 | 1015.5 |
| 20260506161003 | 47 | 81 | 2.0 | 3.0 | 0.00 | 0.89 | 0.36 | 95 | 1015.5 |
| 20260506160003 | 47 | 71 | 2.0 | 6.0 | 0.00 | 0.89 | 0.36 | 95 | 1015.4 |
| 20260506155004 | 47 | 68 | 1.0 | 3.0 | 0.00 | 0.89 | 0.36 | 95 | 1015.2 |
| 20260506154003 | 47 | 69 | 0.0 | 3.0 | 0.00 | 0.89 | 0.36 | 96 | 1015.3 |
| 20260506152004 | 47 | 126 | 3.0 | 8.0 | 0.01 | 0.89 | 0.36 | 97 | 1015.0 |
| 20260506151003 | 46 | 96 | 2.0 | 6.0 | 0.01 | 0.89 | 0.36 | 97 | 1015.2 |
| 20260506145003 | 46 | 84 | 3.0 | 6.0 | 0.01 | 0.89 | 0.36 | 97 | 1015.0 |
| 20260506144003 | 46 | 65 | 2.0 | 7.0 | 0.01 | 0.89 | 0.36 | 97 | 1014.9 |
| 20260506143004 | 46 | 98 | 2.0 | 3.0 | 0.00 | 0.88 | 0.35 | 97 | 1015.1 |
| 20260506142003 | 46 | 91 | 2.0 | 3.0 | 0.00 | 0.88 | 0.35 | 97 | 1015.1 |
| 20260506141004 | 46 | 58 | 2.0 | 5.0 | 0.01 | 0.88 | 0.35 | 97 | 1015.0 |
| 20260506135003 | 46 | 97 | 1.0 | 5.0 | 0.01 | 0.88 | 0.35 | 98 | 1015.0 |
| 20260506134004 | 45 | 57 | 1.0 | 6.0 | 0.01 | 0.88 | 0.35 | 98 | 1014.8 |
| 20260506132003 | 45 | 79 | 2.0 | 3.0 | 0.02 | 0.88 | 0.35 | 98 | 1014.6 |
| 20260506131004 | 45 | 98 | 3.0 | 5.0 | 0.01 | 0.87 | 0.34 | 98 | 1014.6 |
| 20260506130004 | 45 | 110 | 1.0 | 5.0 | 0.01 | 0.87 | 0.34 | 98 | 1014.5 |
| 20260506125004 | 45 | 67 | 2.0 | 8.0 | 0.01 | 0.87 | 0.34 | 98 | 1014.5 |
| 20260506124003 | 45 | 104 | 3.0 | 6.0 | 0.02 | 0.87 | 0.34 | 98 | 1014.4 |
| 20260506123003 | 45 | 116 | 1.0 | 7.0 | 0.02 | 0.87 | 0.34 | 98 | 1014.2 |
| 20260506122003 | 45 | 96 | 2.0 | 7.0 | 0.02 | 0.86 | 0.33 | 98 | 1014.0 |
| 20260506121004 | 45 | 91 | 2.0 | 5.0 | 0.03 | 0.86 | 0.33 | 98 | 1013.9 |
| 20260506120003 | 45 | 153 | 3.0 | 5.0 | 0.03 | 0.86 | 0.33 | 98 | 1013.8 |
| 20260506115003 | 45 | 88 | 5.0 | 9.0 | 0.04 | 0.86 | 0.33 | 98 | 1013.8 |
| 20260506114001 | 45 | 80 | 1.0 | 3.0 | 0.03 | 0.85 | 0.32 | 98 | 1014.0 |
| 20260506113001 | 45 | 36 | 1.0 | 3.0 | 0.04 | 0.85 | 0.32 | 98 | 1014.1 |
| 20260506112001 | 44 | 89 | 1.0 | 3.0 | 0.03 | 0.84 | 0.31 | 98 | 1014.1 |